Location: Lane
(33.5226°N, 79.8788°W)
Time: 11:03:17
(UTC+00:00)

Altair - Pass Details

Date: 05 October 2022
Orbit: 1501 x 1682 km, 47.2° (Epoch: 30 November)

Event Time Altitude Azimuth Distance (km) Brightness Sun altitude
Rises 09:32:03 0° 241° (WSW) 4,716 - -22.6°
Reaches altitude 10° 09:35:05 10° 243° (WSW) 3,757 - -21.9°
Exits shadow 09:39:13 30° 250° (WSW) 2,546 8.1 -21.1°
Maximum altitude 09:44:39 72° 327° (NNW) 1,687 7.6 -20.0°
Drops below altitude 10° 09:54:39 10° 52° (NE) 3,906 10.5 -17.9°
Sets 09:57:52 0° 54° (NE) 4,911 11.2 -17.2°
